GFSFLT1_prec_pwat_093.txt.gz
Precipitable_Water
0.37 0.40 0.40 0.39 0.41 0.57 0.73 0.92 1.05 1.02 1.08 1.13 1.16 1.20 1.25 1.29 1.28 1.26 1.13 1.19 1.34 1.39 1.42 1.49 1.60 1.49 1.48 1.52 1.50 1.48 1.41 1.32
0.33 0.37 0.41 0.42 0.43 0.54 0.74 0.84 1.00 0.97 0.97 0.95 1.01 1.05 1.19 1.23 1.23 1.25 1.12 1.15 1.33 1.43 1.47 1.50 1.60 1.46 1.48 1.51 1.49 1.41 1.35 1.31
0.27 0.29 0.37 0.42 0.47 0.53 0.72 0.78 0.94 0.94 0.95 1.02 1.11 1.16 1.21 1.20 1.21 1.18 1.09 1.20 1.29 1.41 1.49 1.52 1.44 1.45 1.46 1.48 1.44 1.35 1.33 1.33
0.29 0.28 0.31 0.42 0.48 0.58 0.68 0.73 0.89 0.95 0.99 1.07 1.16 1.23 1.17 1.09 1.10 1.07 1.10 1.26 1.33 1.41 1.50 1.48 1.47 1.48 1.49 1.44 1.44 1.35 1.24 1.32
0.42 0.35 0.33 0.38 0.46 0.64 0.71 0.74 0.91 0.95 1.00 1.04 1.11 1.02 0.94 1.02 1.07 0.94 1.15 1.29 1.34 1.44 1.48 1.50 1.49 1.46 1.47 1.42 1.46 1.37 1.30 1.17
0.51 0.43 0.40 0.38 0.44 0.62 0.74 0.78 0.92 0.93 1.00 1.09 1.14 1.03 1.03 1.05 0.89 0.95 1.16 1.26 1.35 1.49 1.51 1.52 1.50 1.45 1.47 1.46 1.44 1.35 1.31 1.22
0.62 0.54 0.49 0.41 0.47 0.72 0.79 0.81 0.86 0.94 1.02 1.14 1.13 1.03 1.00 0.87 0.84 0.97 1.10 1.22 1.36 1.46 1.52 1.50 1.48 1.47 1.47 1.47 1.45 1.36 1.29 1.26
0.66 0.63 0.52 0.49 0.54 0.75 0.82 0.80 0.87 1.00 1.07 1.14 1.12 1.04 0.97 0.79 0.89 0.98 1.03 1.15 1.31 1.41 1.47 1.48 1.43 1.48 1.47 1.46 1.39 1.36 1.34 1.21
0.73 0.71 0.70 0.67 0.72 0.82 0.77 0.86 0.96 1.07 1.12 1.13 1.10 1.04 0.83 0.88 0.95 0.99 1.05 1.17 1.32 1.47 1.47 1.48 1.45 1.46 1.49 1.46 1.42 1.40 1.30 1.21
0.76 0.71 0.71 0.77 0.83 0.82 0.83 0.95 1.04 1.09 1.13 1.09 1.05 0.92 0.84 0.90 0.96 1.02 1.10 1.23 1.35 1.44 1.48 1.45 1.44 1.47 1.43 1.41 1.35 1.33 1.30 1.25
0.70 0.78 0.77 0.87 0.91 0.88 0.92 1.03 1.07 1.09 1.11 1.09 1.00 0.89 0.87 0.91 0.97 0.99 1.12 1.24 1.37 1.40 1.41 1.41 1.42 1.45 1.46 1.40 1.33 1.36 1.33 1.28
0.71 0.81 0.88 0.93 0.96 0.91 0.95 1.05 1.09 1.07 1.09 1.05 0.94 0.87 0.85 0.91 0.96 1.03 1.18 1.30 1.37 1.38 1.36 1.35 1.37 1.40 1.42 1.41 1.40 1.36 1.26 1.11
0.73 0.81 0.89 0.94 0.95 0.95 0.98 1.10 1.07 1.07 1.07 0.96 0.92 0.87 0.84 0.88 0.94 1.07 1.23 1.27 1.35 1.34 1.34 1.35 1.35 1.34 1.35 1.29 1.20 1.15 1.12 1.14
0.74 0.79 0.85 0.91 0.96 0.99 1.01 1.09 1.06 1.09 1.06 0.94 0.90 0.85 0.81 0.86 0.95 1.07 1.22 1.25 1.30 1.32 1.33 1.30 1.28 1.26 1.22 1.22 1.20 1.21 1.25 1.26
0.73 0.76 0.82 0.88 0.97 1.03 1.03 1.09 1.12 1.10 1.01 0.92 0.85 0.84 0.84 0.89 0.98 1.07 1.15 1.24 1.26 1.29 1.32 1.30 1.31 1.29 1.28 1.27 1.26 1.26 1.27 1.26
0.70 0.76 0.78 0.85 0.92 0.96 1.07 1.12 1.14 1.14 0.97 0.90 0.85 0.87 0.86 0.94 0.97 1.01 1.08 1.16 1.19 1.22 1.19 1.21 1.22 1.22 1.25 1.26 1.26 1.28 1.28 1.21
0.68 0.77 0.79 0.84 0.89 0.94 0.99 1.10 1.14 1.06 0.99 0.92 0.89 0.88 0.86 0.91 0.96 0.99 1.03 1.04 1.06 1.10 1.10 1.11 1.10 1.04 1.07 1.12 1.15 1.14 1.17 1.15
0.66 0.74 0.79 0.85 0.89 0.94 0.97 1.03 1.09 1.01 0.96 0.92 0.87 0.87 0.85 0.89 0.94 0.96 0.97 0.99 1.02 0.99 1.01 0.98 0.96 0.95 0.98 1.01 1.05 1.08 1.07 1.03
0.66 0.74 0.78 0.85 0.89 0.95 0.98 1.02 1.04 0.99 0.96 0.91 0.88 0.87 0.86 0.90 0.94 0.94 0.94 0.96 0.95 0.95 0.94 0.95 0.94 0.96 1.00 1.03 1.06 1.05 1.03 1.01

GFSFLT1_prec_pwat_096.txt.gz
Precipitable_Water
0.41 0.42 0.43 0.46 0.46 0.41 0.55 0.90 1.07 1.03 1.15 1.15 1.18 1.17 1.14 1.19 1.19 1.21 1.28 1.31 1.29 1.16 1.12 1.29 1.40 1.41 1.46 1.53 1.49 1.53 1.47 1.41
0.34 0.40 0.43 0.44 0.47 0.42 0.50 0.78 1.01 0.96 1.01 1.01 1.00 0.97 1.06 1.11 1.19 1.27 1.30 1.27 1.24 1.18 1.12 1.27 1.44 1.40 1.46 1.54 1.51 1.44 1.44 1.45
0.29 0.30 0.39 0.43 0.44 0.45 0.51 0.75 1.01 0.95 0.99 1.05 1.03 1.01 1.04 1.11 1.18 1.26 1.28 1.27 1.23 1.15 1.15 1.25 1.41 1.40 1.44 1.47 1.45 1.41 1.42 1.44
0.31 0.33 0.34 0.36 0.42 0.46 0.50 0.69 1.01 1.00 1.02 1.05 1.01 1.05 1.06 1.06 1.13 1.15 1.22 1.23 1.23 1.12 1.23 1.29 1.38 1.45 1.44 1.42 1.45 1.40 1.32 1.37
0.50 0.45 0.42 0.37 0.42 0.45 0.52 0.61 0.75 1.04 1.02 0.97 0.90 0.88 0.82 0.94 1.06 1.15 1.15 1.16 1.13 1.08 1.25 1.31 1.38 1.46 1.44 1.41 1.47 1.42 1.38 1.26
0.62 0.59 0.54 0.47 0.41 0.48 0.56 0.62 0.71 1.05 0.96 0.98 0.94 0.92 0.94 1.03 1.11 1.08 1.06 1.12 1.00 1.13 1.28 1.31 1.33 1.44 1.44 1.46 1.45 1.44 1.42 1.32
0.69 0.67 0.62 0.51 0.47 0.49 0.61 0.67 0.75 0.99 1.00 1.00 1.01 0.94 1.00 1.04 1.04 1.00 1.01 0.89 0.96 1.13 1.24 1.31 1.41 1.42 1.43 1.48 1.48 1.44 1.40 1.37
0.81 0.72 0.68 0.59 0.51 0.49 0.71 0.72 0.76 0.97 1.00 0.98 1.09 1.07 1.10 1.14 1.03 0.98 0.86 0.88 0.97 1.09 1.22 1.30 1.44 1.46 1.49 1.50 1.46 1.43 1.42 1.35
0.81 0.86 0.83 0.70 0.58 0.71 0.78 0.79 0.82 1.01 0.98 1.01 1.08 1.13 1.18 1.14 1.05 0.94 0.88 0.94 1.02 1.15 1.23 1.34 1.41 1.49 1.50 1.47 1.44 1.46 1.44 1.39
0.76 0.80 0.86 0.81 0.95 0.90 0.89 0.87 0.88 0.99 1.01 1.04 1.12 1.20 1.14 1.10 1.01 0.89 0.96 0.98 1.07 1.18 1.31 1.43 1.48 1.47 1.46 1.47 1.43 1.42 1.42 1.39
0.72 0.83 0.86 0.96 0.94 0.96 0.97 0.94 0.98 1.05 1.08 1.13 1.19 1.12 1.13 1.09 0.94 0.90 0.92 1.00 1.12 1.23 1.31 1.43 1.45 1.47 1.45 1.45 1.41 1.42 1.38 1.38
0.70 0.83 0.92 0.97 1.07 1.01 0.94 1.00 1.07 1.13 1.13 1.18 1.15 1.11 1.11 1.01 0.92 0.90 0.94 1.05 1.19 1.26 1.33 1.39 1.43 1.41 1.44 1.42 1.42 1.40 1.33 1.35
0.70 0.80 0.86 0.91 0.93 0.97 0.89 1.03 1.09 1.13 1.14 1.16 1.12 1.13 1.05 0.97 0.91 0.91 0.98 1.12 1.23 1.26 1.34 1.35 1.38 1.40 1.41 1.39 1.37 1.37 1.34 1.30
0.66 0.76 0.79 0.83 0.86 0.89 0.95 1.05 1.11 1.16 1.16 1.13 1.14 1.03 1.01 0.93 0.89 0.93 1.01 1.14 1.19 1.23 1.30 1.31 1.32 1.34 1.34 1.38 1.37 1.31 1.28 1.31
0.62 0.70 0.75 0.80 0.83 0.86 0.91 1.08 1.15 1.17 1.16 1.13 1.08 1.01 1.00 0.90 0.90 0.96 1.03 1.12 1.18 1.21 1.28 1.30 1.30 1.32 1.33 1.34 1.33 1.31 1.28 1.23
0.57 0.64 0.72 0.76 0.81 0.85 0.90 0.99 1.14 1.18 1.15 1.14 1.06 1.05 1.04 0.95 0.95 0.98 1.05 1.11 1.15 1.20 1.24 1.27 1.29 1.28 1.27 1.24 1.23 1.22 1.21 1.22
0.54 0.59 0.69 0.75 0.77 0.83 0.87 0.95 1.08 1.19 1.17 1.13 1.08 1.05 1.05 0.99 0.96 0.99 1.06 1.10 1.12 1.13 1.12 1.14 1.18 1.17 1.22 1.26 1.29 1.26 1.26 1.25
0.51 0.56 0.62 0.73 0.76 0.81 0.84 0.91 1.02 1.07 1.14 1.11 1.05 1.03 0.98 0.95 0.95 0.94 0.96 1.01 1.02 0.99 1.00 1.01 0.99 1.02 1.08 1.13 1.20 1.23 1.21 1.23
0.51 0.56 0.59 0.68 0.78 0.81 0.86 0.90 0.95 0.99 1.06 1.04 1.00 0.99 0.90 0.88 0.90 0.89 0.90 0.93 0.94 0.94 0.93 0.93 0.92 0.94 0.99 1.03 1.05 1.03 1.00 0.99

GFSFLT1_prec_pwat_102.txt.gz
Precipitable_Water
0.37 0.37 0.38 0.40 0.43 0.49 0.60 0.68 0.71 0.76 0.88 1.02 1.22 1.38 1.37 1.37 1.29 1.22 1.24 1.24 1.22 1.18 1.15 1.18 1.26 1.23 1.18 1.15 1.11 1.18 1.29 1.34
0.36 0.38 0.43 0.45 0.44 0.45 0.55 0.64 0.71 0.83 0.88 0.87 1.09 1.28 1.23 1.20 1.23 1.29 1.28 1.28 1.26 1.21 1.19 1.22 1.28 1.21 1.16 1.13 1.12 1.13 1.27 1.41
0.33 0.36 0.36 0.40 0.41 0.47 0.55 0.63 0.70 0.81 0.85 0.85 1.04 1.08 1.20 1.22 1.22 1.25 1.33 1.31 1.28 1.23 1.21 1.24 1.29 1.23 1.19 1.14 1.11 1.14 1.30 1.42
0.30 0.35 0.37 0.40 0.40 0.43 0.47 0.60 0.71 0.78 0.85 0.94 1.02 1.12 1.22 1.17 1.15 1.14 1.22 1.29 1.27 1.23 1.24 1.29 1.29 1.26 1.15 1.15 1.10 1.19 1.19 1.37
0.32 0.41 0.46 0.54 0.55 0.52 0.49 0.58 0.71 0.82 0.93 0.89 0.90 0.88 0.86 0.91 0.99 1.07 1.11 1.19 1.18 1.24 1.28 1.31 1.29 1.25 1.16 1.14 1.09 1.20 1.30 1.26
0.54 0.57 0.60 0.64 0.71 0.67 0.63 0.64 0.81 0.82 0.88 0.92 0.93 0.94 1.00 1.04 1.02 0.98 1.07 1.13 1.20 1.20 1.22 1.28 1.28 1.22 1.19 1.16 1.02 1.19 1.28 1.28
0.67 0.67 0.67 0.68 0.77 0.76 0.71 0.79 0.76 0.89 0.86 0.93 1.01 0.99 0.97 0.94 0.93 0.91 0.98 1.05 1.11 1.17 1.26 1.28 1.27 1.21 1.18 1.05 1.10 1.18 1.22 1.34
0.70 0.65 0.71 0.73 0.74 0.75 0.69 0.81 0.83 0.91 0.91 0.94 0.99 0.95 0.93 0.86 0.88 0.86 0.90 0.93 1.02 1.09 1.24 1.25 1.22 1.20 1.08 1.07 1.09 1.18 1.19 1.24
0.77 0.81 0.89 0.82 0.80 0.80 0.82 0.90 0.84 0.90 1.00 1.04 1.04 0.99 0.93 0.93 0.95 0.91 0.91 0.97 1.04 1.18 1.24 1.19 1.07 1.03 1.03 1.08 1.09 1.13 1.22 1.32
0.77 0.82 0.81 0.81 0.86 0.90 0.90 0.91 1.02 1.08 1.06 1.04 1.02 1.05 1.00 0.98 1.03 0.98 0.98 1.08 1.15 1.25 1.21 1.06 1.00 1.03 1.07 1.10 1.14 1.19 1.26 1.28
0.78 0.78 0.78 0.88 0.98 0.97 1.00 0.96 0.95 1.06 1.12 1.13 1.06 1.09 1.12 1.12 1.13 1.02 1.07 1.11 1.23 1.21 1.09 0.98 1.00 1.02 1.08 1.20 1.23 1.27 1.32 1.34
0.67 0.72 0.76 0.84 0.92 0.99 1.00 1.02 1.04 1.07 1.13 1.12 1.12 1.16 1.16 1.20 1.13 1.11 1.16 1.23 1.25 1.17 0.98 0.96 1.00 1.11 1.27 1.27 1.27 1.34 1.38 1.38
0.62 0.67 0.76 0.80 0.88 0.95 0.99 1.07 1.08 1.08 1.13 1.22 1.18 1.21 1.16 1.12 1.12 1.23 1.23 1.20 1.18 1.01 0.94 0.96 1.06 1.18 1.24 1.25 1.27 1.41 1.39 1.33
0.56 0.60 0.73 0.78 0.86 0.92 0.91 0.99 1.03 1.09 1.18 1.22 1.21 1.17 1.16 1.14 1.22 1.21 1.21 1.14 1.01 0.95 0.95 0.98 1.08 1.15 1.21 1.30 1.35 1.38 1.37 1.38
0.50 0.56 0.63 0.73 0.79 0.84 0.88 0.93 0.99 1.05 1.14 1.21 1.17 1.16 1.21 1.22 1.22 1.18 1.14 1.09 0.98 0.96 0.97 1.00 1.05 1.13 1.26 1.35 1.35 1.35 1.35 1.36
0.44 0.51 0.57 0.66 0.72 0.79 0.84 0.88 0.94 1.01 0.99 1.05 1.09 1.20 1.25 1.23 1.18 1.15 1.09 1.05 1.02 1.00 0.98 1.03 1.07 1.13 1.24 1.29 1.37 1.35 1.33 1.32
0.43 0.47 0.52 0.58 0.67 0.74 0.78 0.82 0.86 0.93 0.99 1.02 1.05 1.11 1.20 1.19 1.18 1.13 1.10 1.05 1.03 1.00 0.99 1.02 1.03 1.10 1.18 1.26 1.30 1.32 1.32 1.31
0.41 0.46 0.49 0.54 0.59 0.69 0.74 0.78 0.84 0.87 0.91 0.96 0.99 1.03 1.07 1.11 1.12 1.08 1.04 1.01 0.96 0.94 0.94 0.98 1.00 1.04 1.15 1.22 1.25 1.25 1.24 1.25
0.42 0.45 0.48 0.52 0.57 0.62 0.67 0.74 0.78 0.82 0.85 0.89 0.93 0.97 1.00 1.04 1.07 1.07 1.03 0.98 0.95 0.89 0.90 0.93 0.97 1.01 1.07 1.11 1.20 1.20 1.17 1.19

GFSFLT1_prec_pwat_108.txt.gz
Precipitable_Water
0.18 0.21 0.25 0.31 0.36 0.38 0.39 0.46 0.60 0.73 0.84 1.05 1.30 1.29 1.23 1.19 1.16 1.20 1.19 1.12 1.15 1.16 1.16 1.19 1.19 1.15 1.13 1.16 1.14 1.18 1.17 1.17
0.19 0.21 0.23 0.25 0.29 0.32 0.34 0.38 0.48 0.68 0.79 0.84 0.94 1.10 1.13 1.12 1.14 1.17 1.23 1.26 1.20 1.17 1.16 1.19 1.22 1.14 1.13 1.16 1.16 1.12 1.16 1.22
0.27 0.32 0.29 0.27 0.25 0.28 0.29 0.33 0.38 0.60 0.77 0.85 0.90 0.92 1.16 1.09 1.09 1.17 1.19 1.29 1.33 1.23 1.17 1.18 1.22 1.20 1.19 1.16 1.15 1.09 1.16 1.21
0.32 0.37 0.40 0.42 0.41 0.41 0.39 0.32 0.35 0.49 0.74 0.88 0.96 1.04 1.16 1.10 1.07 1.06 1.14 1.21 1.38 1.36 1.32 1.29 1.29 1.29 1.20 1.20 1.18 1.12 1.07 1.16
0.42 0.40 0.42 0.44 0.47 0.51 0.51 0.51 0.42 0.50 0.65 0.78 0.86 0.83 0.79 0.90 0.96 0.96 1.04 1.18 1.33 1.25 1.25 1.32 1.31 1.35 1.26 1.24 1.22 1.18 1.16 1.06
0.47 0.46 0.45 0.48 0.51 0.53 0.54 0.54 0.53 0.50 0.67 0.75 0.82 0.84 0.84 0.83 0.92 0.97 0.99 1.10 1.34 1.28 1.24 1.26 1.28 1.26 1.30 1.24 1.18 1.18 1.19 1.14
0.55 0.56 0.56 0.55 0.55 0.55 0.57 0.56 0.57 0.55 0.70 0.77 0.81 0.82 0.81 0.83 0.89 0.90 0.97 1.04 1.19 1.29 1.25 1.26 1.22 1.18 1.22 1.21 1.20 1.18 1.19 1.22
0.57 0.58 0.59 0.62 0.60 0.58 0.60 0.64 0.66 0.68 0.76 0.85 0.89 0.89 0.90 0.83 0.91 0.94 0.92 0.99 1.11 1.13 1.20 1.19 1.17 1.10 1.21 1.23 1.17 1.17 1.22 1.20
0.57 0.61 0.63 0.68 0.67 0.68 0.69 0.73 0.79 0.81 0.93 0.91 0.98 0.98 1.01 1.01 1.02 1.02 1.04 1.06 1.12 1.19 1.18 1.18 1.18 1.11 1.20 1.20 1.19 1.19 1.24 1.23
0.56 0.65 0.71 0.77 0.76 0.77 0.81 0.83 0.84 0.90 0.99 1.06 1.04 1.06 1.05 1.05 1.08 1.11 1.12 1.18 1.29 1.24 1.20 1.16 1.15 1.13 1.16 1.19 1.16 1.16 1.26 1.22
0.60 0.67 0.71 0.81 0.80 0.87 0.87 0.87 0.87 0.88 0.95 1.00 1.04 1.08 1.07 1.14 1.13 1.08 1.08 1.16 1.22 1.23 1.13 1.11 1.11 1.15 1.17 1.21 1.17 1.27 1.25 1.14
0.62 0.66 0.70 0.77 0.86 0.89 0.88 0.88 0.88 0.91 0.92 0.96 1.06 1.07 1.15 1.13 1.11 1.08 1.11 1.18 1.21 1.19 1.18 1.10 1.13 1.17 1.21 1.19 1.22 1.19 1.03 0.95
0.61 0.66 0.71 0.77 0.80 0.85 0.86 0.91 0.87 0.88 0.94 1.02 1.11 1.19 1.15 1.09 1.08 1.13 1.22 1.22 1.22 1.27 1.22 1.20 1.17 1.18 1.18 1.17 1.09 1.07 1.01 0.95
0.59 0.65 0.69 0.73 0.77 0.79 0.81 0.87 0.92 0.95 0.98 1.00 1.03 1.08 1.13 1.13 1.16 1.17 1.23 1.22 1.29 1.36 1.28 1.15 1.13 1.14 1.15 1.14 1.08 1.03 0.99 1.03
0.55 0.59 0.62 0.66 0.71 0.76 0.82 0.85 0.89 0.95 0.95 1.00 1.01 1.06 1.13 1.18 1.25 1.25 1.30 1.36 1.32 1.30 1.19 1.12 1.14 1.14 1.10 1.05 1.03 0.95 0.96 1.00
0.44 0.49 0.54 0.59 0.64 0.70 0.77 0.80 0.86 0.93 0.93 0.92 0.99 1.08 1.11 1.18 1.25 1.31 1.30 1.30 1.27 1.18 1.12 1.14 1.13 1.08 1.05 1.02 0.96 0.93 0.94 0.96
0.43 0.46 0.50 0.56 0.60 0.66 0.70 0.75 0.82 0.87 0.90 0.95 0.99 1.03 1.08 1.11 1.14 1.15 1.18 1.12 1.10 1.07 1.08 1.07 1.03 1.05 1.06 1.01 0.96 0.95 0.94 0.92
0.42 0.44 0.48 0.53 0.55 0.61 0.68 0.70 0.77 0.81 0.85 0.91 0.93 0.98 0.94 1.03 1.05 1.05 1.04 1.01 0.99 0.98 0.95 0.98 1.00 1.01 0.98 1.01 1.01 0.96 0.94 0.93
0.44 0.45 0.46 0.49 0.54 0.56 0.62 0.67 0.71 0.76 0.78 0.83 0.84 0.91 0.91 0.95 0.94 0.95 0.92 0.94 0.94 0.92 0.92 0.95 0.95 0.95 0.98 1.01 1.04 0.99 0.91 0.92

GFSFLT1_prec_pwat_114.txt.gz
Precipitable_Water
0.23 0.26 0.29 0.36 0.37 0.37 0.38 0.48 0.55 0.63 0.87 1.09 1.15 1.16 1.28 1.46 1.45 1.30 1.28 1.26 1.27 1.25 1.29 1.27 1.23 1.20 1.17 1.17 1.17 1.20 1.19 1.16
0.44 0.45 0.47 0.45 0.43 0.42 0.42 0.43 0.57 0.55 0.59 0.78 0.90 1.02 1.10 1.14 1.30 1.32 1.24 1.24 1.25 1.23 1.24 1.29 1.18 1.11 1.14 1.15 1.17 1.15 1.15 1.22
0.40 0.43 0.47 0.48 0.45 0.45 0.45 0.45 0.47 0.54 0.57 0.57 0.81 0.91 0.96 1.01 1.11 1.27 1.38 1.29 1.21 1.20 1.17 1.25 1.19 1.12 1.17 1.14 1.11 1.08 1.14 1.19
0.38 0.40 0.44 0.48 0.46 0.45 0.45 0.46 0.49 0.51 0.56 0.59 0.55 0.86 0.93 0.92 0.96 1.09 1.17 1.20 1.13 1.11 1.12 1.15 1.26 1.20 1.13 1.17 1.16 1.10 1.01 1.12
0.40 0.41 0.43 0.46 0.48 0.49 0.48 0.48 0.48 0.51 0.55 0.55 0.53 0.57 0.72 0.80 0.89 0.94 0.93 1.07 1.13 1.12 1.13 1.13 1.18 1.28 1.23 1.17 1.22 1.19 1.16 0.99
0.39 0.41 0.44 0.50 0.52 0.51 0.50 0.51 0.50 0.54 0.56 0.58 0.59 0.50 0.66 0.82 0.85 0.86 0.88 0.93 1.08 1.15 1.14 1.17 1.14 1.20 1.26 1.27 1.25 1.23 1.20 1.14
0.42 0.44 0.45 0.49 0.54 0.55 0.55 0.52 0.53 0.56 0.56 0.59 0.62 0.64 0.60 0.72 0.74 0.79 0.83 0.90 0.90 1.04 1.19 1.19 1.17 1.15 1.15 1.27 1.37 1.34 1.30 1.30
0.43 0.42 0.43 0.47 0.52 0.58 0.60 0.59 0.57 0.61 0.60 0.56 0.61 0.64 0.67 0.76 0.73 0.79 0.84 0.89 0.88 0.92 1.10 1.15 1.15 1.15 1.19 1.36 1.40 1.31 1.25 1.23
0.43 0.44 0.46 0.47 0.52 0.55 0.59 0.59 0.59 0.65 0.65 0.59 0.63 0.67 0.73 0.77 0.85 0.85 0.90 0.92 0.97 0.99 1.01 1.12 1.15 1.16 1.18 1.32 1.31 1.27 1.27 1.31
0.44 0.47 0.49 0.50 0.51 0.54 0.60 0.64 0.70 0.72 0.69 0.63 0.66 0.72 0.81 0.82 0.91 0.97 0.97 1.04 1.04 1.07 1.10 1.15 1.17 1.15 1.18 1.25 1.31 1.27 1.31 1.32
0.46 0.51 0.54 0.56 0.57 0.59 0.64 0.69 0.75 0.72 0.69 0.65 0.66 0.72 0.83 0.96 1.02 0.99 1.04 1.13 1.13 1.12 1.11 1.16 1.16 1.15 1.19 1.23 1.28 1.30 1.32 1.34
0.51 0.55 0.60 0.61 0.61 0.63 0.68 0.77 0.77 0.76 0.72 0.70 0.70 0.78 0.92 1.06 1.04 1.09 1.14 1.20 1.23 1.22 1.17 1.14 1.14 1.16 1.17 1.19 1.25 1.28 1.29 1.27
0.51 0.56 0.59 0.61 0.63 0.67 0.70 0.74 0.80 0.81 0.80 0.81 0.84 0.91 1.05 1.15 1.14 1.13 1.20 1.21 1.29 1.26 1.25 1.20 1.19 1.20 1.23 1.26 1.24 1.35 1.30 1.26
0.50 0.55 0.57 0.60 0.63 0.65 0.68 0.73 0.79 0.85 0.86 0.87 0.87 0.89 1.01 1.04 1.10 1.16 1.25 1.31 1.32 1.32 1.31 1.29 1.31 1.31 1.32 1.29 1.36 1.37 1.34 1.28
0.49 0.52 0.55 0.59 0.60 0.64 0.69 0.73 0.79 0.84 0.89 0.88 0.91 0.96 1.00 0.99 1.01 1.07 1.12 1.15 1.24 1.22 1.24 1.21 1.20 1.18 1.19 1.23 1.25 1.26 1.22 1.25
0.48 0.50 0.54 0.57 0.59 0.63 0.69 0.73 0.78 0.81 0.83 0.88 0.90 0.94 0.96 0.96 0.98 0.97 1.03 1.07 1.13 1.16 1.15 1.11 1.07 1.09 1.12 1.19 1.24 1.24 1.21 1.16
0.47 0.50 0.50 0.53 0.57 0.60 0.65 0.69 0.73 0.77 0.80 0.82 0.84 0.88 0.90 0.91 0.92 0.95 1.00 1.05 1.07 1.08 1.06 1.03 1.04 1.08 1.12 1.18 1.20 1.15 1.13 1.10
0.45 0.44 0.46 0.49 0.53 0.56 0.58 0.63 0.70 0.73 0.74 0.77 0.80 0.84 0.86 0.88 0.92 0.93 0.94 0.95 0.99 0.98 0.98 1.00 1.02 1.04 1.07 1.10 1.13 1.10 1.06 0.97
0.44 0.45 0.46 0.49 0.51 0.53 0.56 0.59 0.64 0.69 0.70 0.72 0.76 0.78 0.79 0.84 0.85 0.86 0.88 0.87 0.92 0.92 0.91 0.92 0.96 0.97 1.01 1.03 1.06 1.04 0.98 0.95

GFSFLT1_prec_pwat_117.txt.gz
Precipitable_Water
0.42 0.48 0.53 0.55 0.54 0.54 0.54 0.57 0.68 0.71 0.66 0.79 1.13 1.29 1.28 1.38 1.43 1.34 1.28 1.29 1.28 1.34 1.34 1.29 1.24 1.20 1.26 1.30 1.21 1.23 1.19 1.20
0.50 0.49 0.49 0.48 0.50 0.48 0.48 0.52 0.55 0.59 0.65 0.56 0.70 1.05 1.19 1.27 1.30 1.44 1.45 1.37 1.40 1.47 1.37 1.36 1.24 1.14 1.13 1.22 1.22 1.19 1.12 1.26
0.45 0.45 0.47 0.48 0.49 0.50 0.51 0.48 0.49 0.53 0.55 0.62 0.62 0.71 1.01 1.18 1.27 1.30 1.48 1.55 1.52 1.50 1.35 1.28 1.27 1.16 1.19 1.22 1.18 1.17 1.18 1.22
0.43 0.42 0.43 0.46 0.47 0.50 0.51 0.53 0.51 0.51 0.54 0.56 0.58 0.64 0.69 0.96 1.08 1.16 1.26 1.40 1.51 1.51 1.34 1.23 1.24 1.16 1.11 1.25 1.19 1.18 1.10 1.19
0.44 0.44 0.44 0.45 0.46 0.51 0.54 0.55 0.56 0.54 0.55 0.53 0.54 0.53 0.54 0.64 0.92 1.07 1.12 1.28 1.35 1.38 1.49 1.42 1.25 1.16 1.11 1.12 1.30 1.17 1.21 1.08
0.41 0.43 0.45 0.46 0.47 0.48 0.51 0.55 0.56 0.58 0.56 0.54 0.53 0.55 0.59 0.64 0.75 1.03 0.98 1.10 1.27 1.24 1.32 1.45 1.32 1.18 1.11 1.09 1.19 1.25 1.23 1.18
0.42 0.45 0.46 0.47 0.51 0.51 0.49 0.52 0.54 0.57 0.58 0.56 0.55 0.54 0.56 0.57 0.64 0.81 1.02 1.03 1.10 1.16 1.20 1.22 1.31 1.21 1.12 1.12 1.14 1.20 1.29 1.29
0.43 0.42 0.42 0.44 0.46 0.48 0.46 0.48 0.50 0.57 0.59 0.57 0.56 0.54 0.55 0.58 0.59 0.68 1.03 1.01 0.97 0.97 1.10 1.09 1.10 1.18 1.16 1.14 1.15 1.13 1.20 1.23
0.41 0.42 0.43 0.44 0.46 0.48 0.48 0.47 0.49 0.54 0.58 0.59 0.61 0.58 0.55 0.55 0.58 0.61 0.79 1.22 0.96 1.04 1.00 1.02 1.07 1.08 1.17 1.23 1.17 1.17 1.18 1.26
0.42 0.43 0.44 0.46 0.49 0.50 0.49 0.49 0.51 0.55 0.58 0.62 0.64 0.67 0.66 0.63 0.61 0.67 0.79 1.08 1.03 1.09 1.04 0.98 0.99 1.07 1.07 1.16 1.17 1.14 1.17 1.27
0.43 0.44 0.48 0.52 0.56 0.58 0.57 0.56 0.56 0.58 0.63 0.71 0.74 0.74 0.76 0.69 0.66 0.71 0.79 0.94 1.17 1.09 1.14 1.02 1.05 1.06 1.06 1.13 1.13 1.15 1.18 1.23
0.45 0.49 0.54 0.57 0.60 0.64 0.63 0.62 0.61 0.65 0.72 0.79 0.73 0.72 0.72 0.70 0.68 0.77 0.90 1.00 1.09 1.16 1.22 1.10 1.06 1.05 1.07 1.10 1.14 1.16 1.20 1.22
0.49 0.54 0.57 0.60 0.62 0.63 0.63 0.66 0.69 0.72 0.78 0.79 0.73 0.69 0.66 0.71 0.83 0.95 1.04 1.12 1.23 1.25 1.25 1.24 1.12 1.13 1.12 1.11 1.17 1.22 1.17 1.20
0.51 0.54 0.57 0.60 0.62 0.63 0.65 0.68 0.72 0.75 0.82 0.75 0.75 0.71 0.72 0.74 0.77 0.88 1.11 1.16 1.30 1.29 1.28 1.28 1.24 1.15 1.16 1.17 1.21 1.22 1.21 1.27
0.49 0.52 0.55 0.58 0.60 0.63 0.65 0.68 0.71 0.75 0.77 0.77 0.77 0.78 0.79 0.82 0.87 0.92 1.07 1.08 1.07 1.08 1.15 1.17 1.18 1.05 1.05 1.14 1.25 1.25 1.28 1.27
0.48 0.50 0.52 0.55 0.59 0.62 0.64 0.66 0.69 0.72 0.76 0.79 0.81 0.84 0.85 0.87 0.92 0.90 0.94 0.96 0.98 1.03 1.08 1.13 1.06 1.06 1.09 1.15 1.23 1.28 1.27 1.25
0.47 0.49 0.49 0.52 0.54 0.57 0.60 0.64 0.67 0.70 0.71 0.74 0.79 0.80 0.83 0.84 0.86 0.89 0.88 0.88 0.92 0.91 0.98 1.04 1.10 1.13 1.17 1.17 1.17 1.17 1.17 1.15
0.45 0.46 0.47 0.49 0.51 0.53 0.55 0.59 0.65 0.68 0.69 0.70 0.73 0.76 0.79 0.80 0.82 0.85 0.86 0.86 0.87 0.88 0.91 0.93 0.98 1.02 1.08 1.12 1.11 1.09 1.07 1.06
0.41 0.42 0.42 0.46 0.48 0.50 0.53 0.55 0.58 0.61 0.64 0.66 0.69 0.72 0.73 0.75 0.76 0.78 0.81 0.82 0.84 0.86 0.90 0.94 0.94 0.98 1.02 1.03 1.03 1.01 1.00 0.97